Location: Chefe Valiua
(16.5342°S, 37.2214°E)
Time: 06:11:00
(UTC+00:00)

OBJECT-B - Pass Details

Date: 19 January 2021
Orbit: 415 x 428 km, 97.0° (Epoch: 06 March)

Event Time Altitude Azimuth Distance (km) Brightness Sun altitude
Rises 17:52:24 0° 165° (SSE) 2,379 4.8 -22.7°
Reaches altitude 10° 17:54:26 10° 161° (SSE) 1,511 3.7 -23.2°
Enters shadow 17:54:36 11° 160° (SSE) 1,440 3.6 -23.2°
